{"data":{"norad_id":60589,"intl_designator":"2024-150G","name":"STARLINK-32169","alt_names":[],"object_type":"PAYLOAD","status":"ACTIVE","operator":null,"country":"US","launch_date":"2024-08-20","launch_site_code":"AFETR","launch_vehicle":null,"mission":null,"orbit_class":"UNKNOWN","rcs_meters":null,"size_class":null,"mass_kg":null,"dimensions":null,"purposes":["comms"],"wikipedia_slug":null,"has_3d_model":false,"image_url":null,"decayed_at":null,"tle_current":{"epoch":"2026-09-21T20:21:13.082976Z","epoch_age_seconds":72432,"freshness":"FRESH","line1":"1 60589U 24150G   26264.84806809  .00000138  00000+0  15223-4 0  9991","line2":"2 60589  53.1613 115.2163 0001434 108.9453 251.1705 15.34388214118088","mean_motion":15.34388214,"eccentricity":0.0001434,"inclination_deg":53.1613,"raan_deg":115.2163,"arg_perigee_deg":108.9453,"mean_anomaly_deg":251.1705,"bstar":1.5223e-5,"rev_number":11808,"period_min":93.848478948236,"perigee_km":461.75728939327,"apogee_km":463.71925242097,"semimajor_km":6840.8752709071,"source":"CELESTRAK","updated_at":"2026-09-22T09:00:49.272106Z"}}}